Location: Les Chemineaux
(47.3024°N, 1.5104°E)
Time: 21:45:27
(UTC+00:00)

Cosmos 2237 - Pass Details

Date: 19 May 2025
Orbit: 847 x 854 km, 70.8° (Epoch: 18 June)

Event Time Altitude Azimuth Distance (km) Brightness Sun altitude
Rises 22:50:12 0° 331° (NNW) 3,421 8.8 -21.4°
Reaches altitude 10° 22:52:40 10° 331° (NNW) 2,482 7.7 -21.5°
Maximum altitude 22:58:22 83° 245° (WSW) 861 4.1 -21.7°
Enters shadow 23:00:06 47° 163° (SSE) 1,115 4.3 -21.8°
